Regional Weather Roundup
Issued by NWS Wakefield, VA

Home | Current Version | Previous Version | Text Only | Print | Product List | Glossary On
Versions: 1 2 3 4 5 6 7 8 9 10 11 12 13 14 15 16 17 18 19 20 21 22 23 24 25 26 27 28 29 30 31 32 33 34 35 36 37 38 39 40 41 42 43 44 45 46 47 48 49 50
000
ASUS41 KAKQ 190415
RWRAKQ

REGIONAL WEATHER ROUNDUP
NATIONAL WEATHER SERVICE WAKEFIELD VA
1100 PM EST THU JAN 18 2018

Note: "fair" indicates few or no clouds below 12,000 feet with no
significant weather and/or obstructions to visibility. * = Denotes
station may not report precipitation (e.g., rain,snow,etc.),
thunder or fog.

VAZ042-051-052>054-056-190500-
NORTHERN VIRGINIA

CITY           SKY/WX    TMP DP  RH WIND       PRES   REMARKS
WASH NATIONAL  FAIR      38   6  26 CALM      30.14R
DULLES         FAIR      26   8  46 CALM      30.12R
FORT BELVOIR   FAIR      23  13  66 CALM      30.14R
QUANTICO       NOT AVBL
FREDERICKSBRG* FAIR      24  19  78 CALM      30.14R
STAFFORD*      FAIR      24  16  69 CALM      30.18R
WARRENTON      FAIR      20  12  71 CALM      30.12R
CULPEPER*      FAIR      24  13  62 CALM      30.13R
MANASSAS*      FAIR      20  16  84 CALM      30.14R
LEESBURG*      FAIR      34  12  40 NW6       30.12R
WINCHESTER     FAIR      36   7  30 SW6       30.12S
FRONT ROYAL*   FAIR      36   9  32 SE6       30.10S
LURAY*         FAIR      41   3  20 S7        30.11S
$$

VAZ048-049-060>072-079>083-190500-
CENTRAL AND SOUTH CENTRAL VIRGINIA

CITY           SKY/WX    TMP DP  RH WIND       PRES   REMARKS
RICHMOND       FAIR      32  15  49 SW6       30.15R
CHESTERFIELD*  NOT AVBL
PETERSBURG*    FAIR      30  14  51 SW7       30.17R
HANOVER        FAIR      33  12  41 SW6       30.16R
TAPPAHANNOCK*  FAIR      31  16  52 S3        30.15R
QUINTON*       FAIR      28  19  69 CALM      30.16R
CHARLOTTSVILLE FAIR      35  10  35 SE3       30.11R
GORDONSVILLE*  FAIR      26  16  65 CALM      30.11R
ORANGE*        FAIR      27  14  59 CALM      30.12R
LOUISA*        FAIR      31  11  43 SW5       30.16R
BUMPASS*       FAIR      29  11  45 SW3       30.13R
FARMVILLE*     FAIR      29  17  61 CALM      30.16R
CREWE*         FAIR      32  13  46 SW5       30.17R
FORT PICKETT*  FAIR      32  13  46 SW10      30.17R WCI  23
CHASE CITY*    FAIR      29  16  58 W3        30.20R
CLARKSVILLE*   FAIR      32  18  55 SW7       30.20R
SOUTH HILL*    FAIR      31  18  60 SW8       30.26R
LAWRENCEVILLE* FAIR      31  16  54 W5        30.19R
EMPORIA*       FAIR      30  18  59 CALM      30.20S
$$

VAZ088>098-190500-
SOUTHEAST VIRGINIA

CITY           SKY/WX    TMP DP  RH WIND       PRES   REMARKS
NORFOLK        FAIR      32  21  64 SW10      30.16S WCI  24
VIRGINIA BEACH FAIR      40  18  41 SW9       30.16F
NORFOLK NAVAL  FAIR      32  20  61 SW6       30.18S
WEST POINT*    FAIR      29  18  63 SW3       30.19R
SALUDA*        FAIR      30  18  61 CALM      30.15S
NEWPORT NEWS   FAIR      30  20  66 W7        30.17S
LANGLEY AFB    FAIR      31  21  67 SW9       30.16R
FORT EUSTIS    FAIR      31  19  60 W5        30.15R
WILLIAMSBURG*  FAIR      30  19  64 CALM      30.18S
HR EXEC AP*    FAIR      28  21  75 W5        30.18F
FRANKLIN*      FAIR      28  19  69 SW3       30.20S
US460-WAKEFLD  FAIR      29  20  69 SW6       30.18R
$$

VAZ020-022-025-037-045-190500-
WEST CENTRAL AND SOUTHWEST VIRGINIA

CITY           SKY/WX    TMP DP  RH WIND       PRES   REMARKS
STAUNTON*      FAIR      30   8  40 W5        30.15R
WAYNESBORO*    FAIR      35   0  22 SW8       30.12R
HOT SPRINGS VA FAIR      23  -1  34 W22G29    30.09R WCI   7
LYNCHBURG      FAIR      25  11  55 CALM      30.15R
DANVILLE       FAIR      26  16  65 SW6       30.23R
SOUTH BOSTON*  FAIR      30  16  54 W6        30.21R
MARTINSVILLE   FAIR      23  11  60 CALM      30.24R
ROANOKE        FAIR      34   7  32 SW7       30.20R
BLACKSBURG     FAIR      30   8  40 W8G20     30.22R
DUBLIN*        FAIR      32   5  31 W14       30.23R WCI  22
MARION*        FAIR      21   8  56 W22       30.25S WCI   5
HILLSVILLE*    FAIR      27   2  34 NW17G28   30.17S WCI  14
RICHLANDS*     FAIR      20   9  63 CALM      30.26S
WISE*          FAIR      23  12  63 CALM      30.26R
ABINGDON*      FAIR      19  12  74 CALM      30.32S
$$

MDZ021>025-VAZ099-100-190500-
SOUTHERN MARYLAND AND THE DELMARVA PENINSULA

CITY           SKY/WX    TMP DP  RH WIND       PRES   REMARKS
PATUXENT RIVER CLEAR     28  15  58 W6        30.14R
BAY BRIDGE APT FAIR      34  12  40 NW6       30.13R
LEONARDTOWN    FAIR      28  18  64 CALM      30.16R
DOVER          FAIR      27  18  69 CALM      30.12R
GEORGETOWN     FAIR      27  14  58 CALM      30.12R
EASTON         FAIR      28  16  62 CALM      30.16S
CAMBRIDGE        N/A     27  16  63 SW5       30.13S
SALISBURY      FAIR      29  18  63 SW5       30.13R
OCEAN CITY     FAIR      30  18  60 W6        30.14
WALLOPS ISLAND FAIR      32  22  66 SW6       30.15R
ACCOMACK*      FAIR      31  22  67 SW7       30.15S
$$

NCZ012>017-030>032-190500-
NORTH CENTRAL AND EASTERN NORTH CAROLINA

CITY           SKY/WX    TMP DP  RH WIND       PRES   REMARKS
ROANOKE RAPIDS FAIR      27  21  80 SW5       30.21R
RALEIGH        FAIR      23  20  88 SW7       30.25R
ELIZABETH CITY FAIR      27  22  81 SW8       30.20S
AHOSKIE*       FAIR      25  20  82 CALM      30.21S
EDENTON*       FAIR      33  24  70 W7        30.22S
CURRITUCK*     FAIR      31  21  67 W10       30.19S WCI  22
KILL DEVIL HLS FAIR      30  24  77 MISG      30.19S
MANTEO         FAIR      30  21  69 W9        30.21S
CAPE HATTERAS  FAIR      34  26  72 W10G20    30.23R
TARBORO*       NOT AVBL
GOLDSBORO      FAIR      32  21  64 W9        30.24S
WASHINGTON     FAIR      30  21  70 W7        30.24S
GREENVILLE     FAIR      32  23  69 W5        30.25S
NEW BERN       FAIR      30  20  66 W7        30.25S
WILMINGTON     FAIR      29  20  69 W6        30.28R
$$

VAZ048-190500-
ELSEWHERE

CITY           SKY/WX    TMP DP  RH WIND       PRES   REMARKS
HARRISBURG PA  FAIR      20  13  74 CALM      30.08F
BALTIMORE      FAIR      31  10  41 W5        30.11S
ANNAPOLIS      FAIR      35  15  44 N3        30.12S
ANDREWS AFB    FAIR      28  12  50 CALM      30.11S
PHILADELPHIA   FAIR      28  11  48 CALM      30.12S
HENDERSON NC   FAIR      21  13  70 SW5       30.21R
GREENSBORO     FAIR      29  20  69 W8        30.22S
ROCKY MOUNT    NOT AVBL
$$

VAZ100-190500-
MARINE

STATION/POSITION TIME  TEMP    WIND        PRES    WAVE   SWELL
                       AIR SEA DIR/SP/G            HT/PER HT/PER
                 (UTC) (F)     (DEG/KT/KT) (MB)    (FT/S) (FT/S)
BRANDYWINE LGT   0342   34     360/  3/  4 1020.6R
CAPE MAY NJ      0348   27 32   CALM  /  2 1019.7R
LEWES DE         0348   32 32  310/  4/  5 1020.1R
15NM E FENWICK I 0350   37 40  260/ 14/ 17 1020.0R   3/ 9   2/ 9
OCEAN-CITY-INLET 0348   32 35  280/  6/  7 1020.7R
WACHAPREAGUE VA  0348   31 33  250/  4/  5 1021.1R
THOMAS POINT MD  0400   36 31  270/  6/  7   N/A
GOOSES REEF MD   0400   35 32  250/  8/ 10 1020.8
COVE POINT MD    0348   36     280/  9/ 12 1020.9R
SOLOMONS ISLAND  0348   31 34  320/  3/  4 1020.5R
BISHOPS HEAD MD  0348   33 31  240/  6/  8 1020.8R
PINEY POINT MD   0336          320/  3/  4   N/A
POTOMAC MD       0400   33 33  310/  4/  6 1020.7
CAMBRIDGE MD     0348   28 31              1020.9R
LEWISETTA VA     0348   33 31  240/  3/  4 1021.2R
RAPPAHANNOCK LGT 0348          240/ 11/ 12 1021.6R
STINGRAY PT      0400   33 33  280/  8/ 10 1023.9    0
YORK RVR RNG VA  0348   33     260/ 11/ 12 1021.8R
YORKTOWN VA      0348   33 34  260/  6/ 12 1021.1R
DOMINION TERM VA 0348   33     270/  9/ 11 1021.8S
KIPTOPEKE VA     0348      34  240/  4/  6   N/A
CAPE HENRY VA    0348   33     250/  9/ 14   N/A
WILLOUBY STN VA  0348          250/ 15/ 16 1021.1F
S CRANEY ISL VA  0348   32     250/  4/  7 1021.7S
CAPE HENRY BUOY  0400      40                N/A     3/11
1ST LANDING BUOY 0400   33 35  270/ 14/ 17 1021.3    1/ 3
CAPE CHARLES BUO 0351      38                N/A     3/ 4
64NM E OF VA BCH 0350   42 60  280/ 21/ 25 1021.2S   7/ 6   2/10
DUCK PIER NC     0348   33 39  260/ 13/ 18 1021.8R
44100 DUCK FRF   0345      43                N/A     4/11   2/11
44056 DUCK FRF   0400      39                N/A     2/ 9   2/11
OREGON INLET NC  0336   31 36  270/  8/ 11 1022.7F
HATTERAS NC      0348   35 41  270/ 16/ 20 1023.2R
DIAMOND SHLS NC  0400   41     290/ 19/ 23 1023.5
CAPE LOOKOUT NC  0400          280/ 18/ 20 1024.4R
$$



USA.gov is the U.S. government's official web portal to all federal, state and local government web resources and services.